Terug naar catalogus

UFO 7

USA 127

ActiefCommunicatieGEO
NORAD 23967·PAYLOAD·🇺🇸 United States

Gelanceerd Jul 25, 1996 vanaf Cape Canaveral Space Force Station

Loading…

TLE

VersSource: Space-Track

Epoch: Sep 14, 2026, 06:37 UTC

1 23967U 96042A   26257.27587657 -.00000284  00000-0  00000-0 0  9992
2 23967  11.2032  16.5743 0006258 135.6009 231.5039  1.00179970110389

Volg UFO 7 in realtime met AllMySat

Download on the App Store